This demonstration page uses our WeatherBlox Daily Observations layout. Learn more.

Left ArrowRight Arrow

Hourly Observations for May 18, 2015

Temp ( °F °C ) Dew Point ( °F °C ) Humidity (%) Winds ( mph kmh ) Pressure ( in mb ) Visibility ( mi km ) Precip ( " mm )
12:53 am 00:53 Clear 70 21.1 38 3.3 31 31 ESE 8 13 29.92 1013 10 16 0.00 0.00
1:53 am 01:53 Clear 68 20 39 3.9 35 35 ESE 9 15 29.91 1013 10 16 0.00 0.00
2:53 am 02:53 Clear 65 18.3 40 4.4 40 40 ESE 8 13 29.92 1013 10 16 0.00 0.00
3:53 am 03:53 Clear 66 18.9 48 8.9 52 52 ESE 12 19 29.91 1013 10 16 0.00 0.00
4:53 am 04:53 Clear 65 18.3 55 12.8 70 70 ESE 10 17 29.91 1013 10 16 0.00 0.00
5:53 am 05:53 Clear 65 18.3 59 15 81 81 ESE 9 15 29.92 1013 10 16 0.00 0.00
6:53 am 06:53 Clear 65 18.3 61 16.1 87 87 SE 12 19 29.93 1014 10 16 0.00 0.00
7:53 am 07:53 Sunny 67 19.4 62 16.7 84 84 SE 9 15 29.95 1014 10 16 0.00 0.00
8:53 am 08:53 Sunny 71 21.7 63 17.2 76 76 SE 8 13 29.97 1015 10 16 0.00 0.00
9:53 am 09:53 Sunny 75 23.9 62 16.7 64 64 SSE 12 19 29.99 1016 10 16 0.00 0.00
10:53 am 10:53 Sunny 78 25.6 61 16.1 56 56 SE 9 15 29.97 1015 10 16 0.00 0.00
11:53 am 11:53 Sunny 82 27.8 60 15.6 47 47 ESE 10 17 29.96 1015 10 16 0.00 0.00
12:53 pm 12:53 Sunny 86 30 58 14.4 39 39 E 12 19 29.95 1014 10 16 0.00 0.00
1:53 pm 13:53 Sunny 88 31.1 57 13.9 35 35 ESE 12 19 29.92 1013 10 16 0.00 0.00
2:53 pm 14:53 Sunny 90 32.2 54 12.2 29 29 SE 20 31 29.90 1012 10 16 0.00 0.00
3:53 pm 15:53 Sunny 92 33.3 44 6.7 19 19 SE 18 30 29.85 1011 10 16 0.00 0.00
4:53 pm 16:53 Sunny 87 30.6 52 11.1 30 30 ESE 21 33 29.84 1011 10 16 0.00 0.00
5:53 pm 17:53 Mostly Sunny 86 30 55 12.8 35 35 ESE 22 35 29.82 1010 10 16 0.00 0.00
6:53 pm 18:53 Sunny 85 29.4 55 12.8 36 36 ESE 18 30 29.81 1010 10 16 0.00 0.03
7:00 pm 19:00 Sunny with Nearby Thunderstorms 84 29 55 13 37 37 ESE 21 33 29.74 1007 10 16 0.00 0.00
7:38 pm 19:38 Windy with Storms Likely 80 26.7 58 14.4 47 47 SE 22 35 29.77 1008 10 16 0.00 0.03
7:45 pm 19:45 Cloudy with Strong Thunderstorms 75 23.9 62 16.7 64 64 ESE 17 28 29.80 1009 2 2 0.07 1.78
7:53 pm 19:53 Cloudy with Thunderstorms 75 23.9 62 16.7 64 64 ESE 15 24 29.84 1011 2 2 0.11 2.79
8:00 pm 20:00 Cloudy with Strong Thunderstorms 75 24 63 17 65 65 E 14 22 29.80 1009 7 11 0.00 0.00
8:14 pm 20:14 Cloudy with Nearby Thunderstorms 75 24 61 16 61 61 E 18 30 29.77 1008 10 16 0.00 0.00
8:34 pm 20:34 Mostly Cloudy 77 25 61 16 57 57 ESE 16 26 29.77 1008 10 16 0.00 0.00
8:53 pm 20:53 Partly Cloudy 75 23.9 60 15.6 60 60 SE 20 31 29.83 1010 10 16 0.04 1.02
9:16 pm 21:16 Partly Cloudy with Nearby Thunderstorms 70 21.1 62 16.7 76 76 SE 22 35 29.83 1010 10 16 0.00 0.00
9:25 pm 21:25 Partly Cloudy with Thunderstorms 71 21.7 62 16.7 73 73 SE 20 31 29.80 1009 10 16 0.00 0.00
9:40 pm 21:40 Partly Cloudy with Nearby Thunderstorms 72 22 63 17 73 73 ESE 20 31 29.83 1010 10 16 0.00 0.00
9:53 pm 21:53 Windy with Storms Likely 70 21.1 62 16.7 76 76 ESE 21 33 29.83 1010 10 16 0.00 0.03
10:53 pm 22:53 Partly Cloudy 67 19.4 60 15.6 79 79 E 10 17 29.87 1012 10 16 0.01 0.25
11:53 pm 23:53 Partly Cloudy 69 20.6 61 16.1 76 76 ESE 16 26 29.85 1011 10 16 0.00 0.00

Powered by AerisWeather